Probability
0 1 1 1 0 0 0 0 0 0 0 0 0 0 0 0 0 0 0 0 0 0 0 0 0 0 0 0 0 0 0 0 0 0 0 0 0 0 0 0 0 0 0
0 0 0 0 0 0 0 0 0 0 0 0 0 0 0 0 0 0 0 0 0 0 0 0 0 0 0 0 0 0 0 0 0 0 0 0 0 0 0 0 0 0 0
0 0 0 0 0 0 0 0 0 0 0 0 0 0 0 0 0 0 0 0 0 0 0 0 0 0 0 0 0 0 0 0 0 0 0 0 0 0 0 0 0 0 0
0 0 0 0 0 0 0 0 0 0 0 0 0 0 0 0 0 0 0 0 0 0 0 0 0 0 0 0 0 0 0 0 0 0 0 0 0 0 0 0 0 0 0
0 0 0 0 0 0 0 0 0 0 0 0 0 0 0 0 0 0 0 0 0 0 0 0 0 0 0 0 0 0 0 0 0 0 0 0 0 0 0 0 0 0 0
0 0 0 0 0 0 0 0 0 0 0 0 0 0 0 0 0 0 0 0 0 0 0 0 0 0 0 1 1 0 0 0 0 0 0 0 0 0 0 0 0 0 0
0 0 0 0 0 0 0 0 0 0 0 0 0 0 0 0 0 0 0 0 0 0 0 0 0 0 0 1 2 1 0 0 0 0 0 0 0 0 0 0 0 0 0
0 0 0 0 0 0 0 0 0 0 0 0 0 0 0 0 0 0 0 0 0 0 0 0 0 0 0 1 2 2 1 0 0 0 0 0 0 0 0 0 0 0 0
0 0 0 0 0 0 0 0 0 0 0 0 0 0 0 0 0 0 0 0 0 0 0 0 0 0 0 0 1 1 1 0 0 0 0 0 0 0 0 0 0 0 0
0 0 0 0 0 0 0 0 0 0 0 0 0 0 0 0 0 0 0 0 0 0 0 0 0 0 0 0 0 0 0 0 0 0 0 0 0 0 0 0 0 0 0
0 0 0 0 0 0 0 0 0 0 0 0 0 0 0 0 0 0 0 0 0 0 0 0 0 0 0 0 0 0 0 0 0 0 0 0 0 0 0 0 0 0 0
0 0 0 0 0 0 0 0 0 0 0 0 0 0 0 0 0 0 0 0 0 0 0 0 0 0 0 0 0 0 0 0 0 0 0 0 0 0 0 0 0 0 0
0 0 0 0 0 0 0 0 0 0 0 0 0 0 0 0 0 0 0 0 0 0 0 0 0 0 0 0 0 0 0 0 0 0 0 0 0 0 0 0 0 0 0
0 0 0 0 0 0 0 0 0 0 0 0 0 0 0 0 0 0 0 0 0 0 0 0 0 0 0 0 0 0 0 0 0 0 0 0 0 0 0 0 0 0 0
0 0 0 0 0 0 0 0 0 0 0 0 0 0 0 0 0 0 0 0 0 0 0 0 0 0 0 0 0 0 0 0 0 0 0 0 0 0 0 0 0 0 0
0 0 0 0 0 0 0 0 0 0 0 0 0 0 0 0 0 0 0 0 0 0 0 0 0 0 0 0 0 0 0 0 0 0 0 0 0 0 0 0 0 0 0
0 0 0 0 0 0 0 0 0 0 0 0 0 0 0 0 0 0 0 0 0 0 0 0 0 0 0 0 0 0 0 0 0 0 0 0 0 0 0 0 0 0 0
0 0 0 0 0 0 0 0 0 0 0 0 0 0 0 0 0 0 0 0 0 0 0 0 0 0 0 0 0 0 0 0 0 0 0 0 0 0 0 0 0 0 0
0 0 0 0 0 0 0 0 0 0 0 0 0 0 0 0 0 0 0 0 0 0 0 0 0 0 0 0 0 0 0 0 0 0 0 0 0 0 0 0 0 0 0
0 0 0 0 0 0 0 0 0 0 0 0 0 0 0 0 0 0 0 0 0 0 0 0 0 0 0 0 0 0 0 0 0 0 0 0 0 0 0 0 0 0 0
0 0 1 1 0 0 0 0 0 0 0 0 0 0 0 0 0 0 0 0 0 0 0 0 0 0 0 0 0 0 0 0 0 0 0 0 0 0 0 0 0 0 0
0 0 1 1 0 0 0 1 1 0 0 0 0 0 0 0 0 0 0 0 0 0 0 0 0 0 0 0 0 0 0 0 0 0 0 0 0 0 0 0 0 0 0
0 0 0 0 0 0 0 1 2 1 1 1 1 0 0 0 0 0 0 0 0 0 0 0 0 0 0 0 0 0 0 0 0 0 0 0 0 0 0 0 0 0 0
0 0 0 0 0 1 1 1 2 2 2 2 2 1 0 0 0 0 0 0 0 0 0 0 0 0 0 0 0 0 0 0 0 0 0 0 0 0 0 0 0 0 0
0 0 0 0 1 2 2 1 1 2 3 3 3 2 1 0 0 0 0 0 0 0 0 0 0 0 0 0 0 0 0 0 0 0 0 0 0 0 0 0 0 0 0
0 0 0 0 1 2 3 2 1 1 3 3 3 3 2 1 0 0 0 0 0 0 0 0 0 0 0 0 0 0 0 0 0 0 0 0 0 0 0 0 0 0 0
Wind_Speed
2 3 7 9 10 10 10 11 11 11 12 12 12 12 12 12 12 12 12 12 12 12 13 13 13 13 13 13 12 12 12 12 12 12 12 12 12 12 12 12 10 7 12
4 4 7 8 10 10 10 10 10 10 11 11 11 11 11 11 11 11 11 11 11 12 12 12 12 12 12 11 11 12 11 11 11 11 10 9 9 10 10 10 10 7 11
5 4 6 8 9 10 10 10 10 10 10 10 10 11 11 11 11 11 11 11 11 11 11 11 11 11 10 10 10 11 11 10 10 9 8 4 5 9 9 9 9 9 9
5 4 5 8 9 10 9 9 9 9 9 10 10 10 10 10 10 10 10 10 10 10 10 10 10 9 9 9 9 9 9 9 9 8 5 4 3 7 8 8 8 8 8
5 4 5 8 9 9 9 9 8 9 9 9 9 10 10 10 9 9 9 9 9 8 8 9 8 8 8 8 8 8 8 8 8 7 4 4 3 5 7 7 7 7 7
5 4 5 8 8 8 8 8 8 8 8 8 8 9 9 9 8 8 8 8 8 7 7 8 7 8 8 8 7 7 7 8 7 4 3 3 2 4 5 5 5 5 5
5 4 5 7 7 7 7 7 7 7 7 7 7 8 8 8 8 7 7 7 7 6 6 6 6 6 6 6 6 6 6 6 4 3 3 3 2 4 4 4 4 4 4
5 4 3 5 6 6 6 6 6 6 6 6 7 7 7 7 7 6 6 6 5 5 5 5 5 5 5 5 6 6 5 5 4 2 2 2 3 4 4 4 4 4 4
5 4 3 3 3 5 5 5 5 5 5 5 6 6 6 5 5 5 5 5 5 5 4 4 4 4 4 4 5 5 5 5 3 2 2 2 3 3 4 4 4 4 4
4 4 3 3 3 2 3 4 4 4 4 5 5 5 5 5 5 5 4 4 4 4 3 3 3 3 3 4 4 4 4 4 2 2 2 2 4 4 4 4 4 4 4
3 3 3 3 3 2 2 3 3 3 4 4 3 4 4 2 2 2 3 3 3 3 3 2 2 2 3 3 4 4 4 2 1 1 2 4 4 4 4 4 4 5 5
2 1 2 2 2 2 1 2 1 2 2 2 2 2 2 2 2 2 2 3 2 2 1 1 1 2 2 2 3 3 1 2 1 1 2 5 5 5 5 5 5 5 5
1 1 1 1 2 2 1 1 1 1 1 1 2 2 2 2 1 1 1 1 1 1 1 1 1 1 1 1 1 1 1 1 1 2 3 6 6 6 6 6 5 6 5
1 1 1 1 1 1 1 1 1 1 1 1 1 1 1 1 1 1 1 1 0 0 0 0 0 1 1 1 1 1 1 1 1 1 3 5 6 6 6 6 6 6 6
1 1 1 1 0 1 1 1 1 1 0 1 1 1 2 2 2 1 1 1 1 0 1 1 1 1 1 1 1 1 2 2 2 2 2 4 6 7 7 7 7 7 7
1 1 1 1 1 1 1 0 0 0 0 0 1 1 2 2 2 2 1 1 1 1 1 1 2 2 2 2 2 2 3 3 2 2 2 3 5 6 7 8 8 8 8
2 1 1 1 1 1 0 0 0 0 0 0 0 1 1 2 3 3 2 2 2 2 2 1 2 1 1 2 3 3 2 3 3 3 3 2 3 4 6 8 8 9 8
2 2 1 1 2 1 1 0 0 0 0 0 0 0 1 1 2 2 2 3 2 2 2 2 2 2 2 2 3 3 3 3 3 3 3 2 2 2 4 7 8 9 9
2 2 2 2 1 1 1 0 0 0 0 0 0 0 1 1 1 1 2 2 2 2 2 2 2 2 2 3 3 3 3 3 3 3 3 3 3 3 3 5 6 7 8
2 2 2 2 2 1 1 1 1 1 1 1 1 1 1 1 1 2 1 1 1 2 2 2 3 2 3 3 3 4 4 4 3 3 4 3 3 3 3 3 3 4 7
3 3 2 2 2 1 1 0 0 1 1 1 1 1 1 1 1 1 1 1 2 2 3 3 3 3 3 1 1 3 3 4 4 3 3 3 3 3 3 3 3 3 3
2 3 2 2 1 1 1 1 1 1 1 1 1 2 2 1 1 1 1 1 1 2 2 2 2 2 2 2 1 1 3 3 2 3 3 3 3 3 3 3 3 3 3
2 2 2 2 2 2 1 1 1 1 1 1 2 2 3 2 2 2 1 1 2 2 2 2 2 3 3 2 2 2 2 3 3 2 3 3 3 3 3 3 4 4 3
2 2 2 3 2 2 1 1 1 1 0 1 2 2 3 3 3 2 2 2 2 2 2 2 2 3 3 3 3 3 3 2 2 4 3 2 3 4 4 3 4 4 3
2 2 2 2 3 2 2 1 1 0 1 1 2 2 3 2 3 3 3 2 2 2 3 3 3 3 3 3 3 3 3 3 3 4 6 4 3 3 4 4 4 3 3
4 3 3 3 3 3 3 2 1 1 2 3 3 2 2 2 3 3 3 3 3 3 3 4 4 4 4 4 4 3 3 3 3 4 6 6 5 4 4 3 4 3 3
Wind_Direction
199 186 170 148 138 132 128 123 119 116 114 113 110 108 105 103 99 96 96 94 93 92 90 87 85 83 81 79 78 77 75 73 71 71 69 69 70 70 69 65 62 56 65
160 168 161 146 140 135 130 128 125 122 119 117 115 113 109 105 102 99 99 97 96 93 90 87 86 84 81 79 79 79 77 75 72 69 65 61 67 70 69 67 65 64 64
135 152 152 143 140 135 131 129 128 127 123 121 119 118 114 109 104 101 98 96 95 93 92 90 88 86 83 81 81 80 77 75 73 68 58 40 55 71 70 68 64 62 61
136 137 142 138 137 136 134 132 132 131 127 123 121 121 116 110 106 102 99 97 95 94 93 93 91 88 84 82 82 80 76 74 72 68 48 32 31 68 68 66 63 58 56
124 120 128 129 133 135 136 134 133 133 129 126 123 124 120 114 108 105 102 100 97 95 95 93 90 86 83 80 78 79 75 75 70 60 40 26 19 63 66 66 61 58 52
109 110 124 125 130 133 134 134 134 134 133 130 127 124 124 119 115 111 108 105 100 98 97 96 91 84 83 78 73 74 75 75 66 48 31 16 7 48 63 64 60 56 49
108 105 127 126 127 127 132 135 136 135 134 131 130 128 124 123 121 117 112 107 104 101 100 100 94 84 81 75 70 69 70 71 66 45 25 8 0 36 51 52 49 43 35
113 103 113 123 125 127 128 128 130 131 131 132 133 134 130 126 124 120 116 112 108 105 103 98 92 84 79 75 70 67 63 62 58 35 10 352 360 21 33 33 32 28 24
98 98 92 104 125 132 128 121 118 120 122 128 133 132 130 123 120 113 112 114 112 105 99 93 85 79 70 65 62 58 56 55 54 20 354 338 348 4 13 14 17 19 10
90 90 82 82 85 102 122 126 123 121 120 117 119 123 127 123 116 110 108 107 109 108 98 87 78 73 59 52 50 49 50 48 32 3 339 327 336 346 354 359 0 359 357
88 77 77 74 76 79 103 129 133 131 120 109 105 115 113 101 101 104 108 108 107 102 95 85 73 60 50 39 38 38 38 30 4 336 318 327 330 333 340 345 344 341 340
121 103 74 75 75 77 86 93 103 100 100 90 91 104 102 103 102 105 110 115 113 105 91 60 50 41 37 21 20 26 25 5 353 317 316 320 320 321 324 328 328 327 329
151 118 55 84 82 83 73 92 82 89 94 97 104 108 112 106 95 85 86 76 81 76 38 358 6 15 20 13 1 355 344 343 317 305 313 314 313 313 314 314 316 316 319
95 55 4 52 96 88 78 83 98 113 129 138 143 132 128 126 123 130 129 146 128 94 183 318 310 318 323 314 299 303 306 300 290 291 302 310 310 309 309 310 310 315 319
64 25 359 7 60 68 86 98 96 103 163 191 171 169 162 164 176 177 183 179 207 212 219 238 260 280 283 288 283 272 276 279 280 282 296 309 306 305 304 305 308 311 314
5 360 13 28 27 49 84 111 123 166 179 136 205 200 186 182 184 189 201 203 223 226 228 231 242 251 259 261 271 265 264 268 269 270 273 296 302 302 302 302 303 305 307
339 355 36 82 55 54 31 283 91 90 136 185 244 228 209 202 198 198 204 213 225 222 222 229 254 261 273 272 269 264 260 260 262 263 267 272 286 301 299 298 300 302 303
349 358 18 44 54 47 25 347 43 106 168 200 216 210 223 224 217 206 211 228 228 209 210 223 232 251 267 270 271 271 261 258 258 256 257 262 267 282 294 297 298 298 299
348 356 21 33 46 38 39 45 58 81 139 257 203 216 243 238 225 206 221 239 219 208 214 226 231 227 249 264 265 266 264 254 251 252 255 261 261 265 271 295 298 297 294
9 18 34 32 27 39 60 50 48 42 359 335 310 308 296 261 244 221 222 246 233 227 231 230 238 238 241 255 270 274 267 258 251 247 251 257 260 262 265 272 279 289 290
24 30 28 31 24 49 45 47 252 293 303 318 309 321 316 314 282 241 256 242 232 234 244 233 230 240 247 241 262 285 278 258 249 248 249 251 262 264 262 261 260 265 284
13 16 18 15 12 10 349 280 226 239 256 299 330 334 328 327 306 258 266 263 252 251 254 249 235 236 245 213 215 272 292 302 280 256 246 246 260 265 263 266 261 259 264
358 355 357 4 7 5 8 33 29 35 22 14 355 343 332 324 309 293 275 263 257 242 258 262 248 241 246 239 219 211 234 255 293 274 248 247 252 255 257 262 263 259 261
326 353 9 10 11 11 21 50 71 80 295 291 315 312 325 330 323 316 301 282 269 253 255 260 256 255 250 252 246 232 233 228 252 287 272 251 255 253 251 259 262 256 252
348 7 15 18 17 14 28 43 84 9 292 313 328 327 328 329 330 330 319 308 292 278 267 259 253 252 245 252 250 249 244 246 234 251 278 280 271 250 248 245 249 245 245
4 13 15 24 15 15 18 18 39 347 331 338 334 328 324 324 320 328 321 306 296 287 281 270 255 248 246 251 253 248 243 236 236 241 263 279 278 268 251 241 242 239 241